#timestamp,LO_Frequency,Hit,StdDev 
1538575215.8,286046997.4,N
1538575235.6,286046996.1,N
1538575255.4,286046993.4,N
1538575275.3,286046995.8,N
1538575295.1,286046993.9,N
1538575315.8,286046993.8,N
1538575335.7,286046997.5,N
1538575355.5,286046998.0,N
1538575375.4,286046995.8,N
1538575395.2,286046995.1,N
1538575415.0,286046996.4,N
1538575415.9,286046996.4,N
1538575435.8,286046996.0,N
1538575455.6,286046995.2,N
1538575475.4,286046998.0,N
1538575495.3,286046999.2,N
1538575515.1,286046998.2,N
1538575535.9,286046998.8,N
1538575555.7,286046999.5,N
1538575575.5,286046996.9,N
1538575595.4,286046998.5,N
1538575615.2,286046997.5,N
1538575635.0,286046996.9,N
1538575635.9,286046996.9,N
1538575655.8,286046999.1,N
1538575675.6,286046996.5,N
1538575695.4,286046997.8,N
1538575715.3,286046997.3,N
1538575735.1,286046997.5,N
1538575755.9,286046996.3,N
1538575775.7,286046994.3,Y
1538575795.5,286046999.0,P
1538575815.4,286046998.2,N
1538575835.2,286046996.6,P
1538575855.0,286046999.5,N
1538575856.0,286046999.5,N
1538575875.8,286046997.5,N
1538575895.6,286047001.1,N
1538575915.5,286046998.9,N
1538575935.3,286047000.6,N
1538575955.1,286047000.8,N
1538575975.9,286046998.1,N
1538575995.7,286046999.0,N
1538576015.5,286046998.4,N
1538576035.4,286046999.6,N
1538576055.2,286046996.6,N
1538576075.1,286046997.3,N
1538576076.0,286046997.3,N
1538576095.8,286046997.3,N
1538576115.6,286046997.5,N
1538576135.5,286046997.3,N
1538576155.3,286046997.5,N
1538576175.1,286046997.4,N
1538576195.9,286046998.0,N
1538576215.7,286046995.5,Y
1538576235.6,286046996.5,P
1538576255.4,286046997.2,P
1538576275.2,286046997.7,P
1538576295.1,286046996.7,Y
1538576296.0,286046996.7,P
1538576315.8,286047000.7,N
1538576335.7,286047000.3,N
1538576355.5,286047001.0,N
1538576375.3,286046998.2,N
1538576395.2,286047000.3,N
1538576415.0,286047000.4,N
1538576415.9,286047000.4,N
1538576435.7,286047000.9,N
1538576455.6,286047001.2,N
1538576475.4,286046996.5,N
1538576495.3,286046998.7,N
1538576515.1,286047000.6,N
1538576516.0,286047000.6,N
1538576535.8,286046998.4,N
1538576555.7,286046998.8,N
1538576575.5,286046998.3,N
1538576595.3,286046998.2,N
1538576615.2,286046998.8,N
1538576635.0,286046996.9,N
1538576635.9,286046996.9,N
1538576655.8,286046996.5,N
1538576675.6,286046997.0,N
1538576695.4,286046997.9,N
1538576715.3,286046997.2,N
1538576735.1,286046997.9,N
1538576755.8,286046995.0,Y
1538576775.7,286046997.6,P
1538576795.5,286046996.7,P
1538576815.4,286046997.3,P
1538576835.2,286046997.3,Y
1538576855.0,286046998.6,P
1538576855.9,286046998.6,N
1538576875.8,286046998.4,P
1538576895.6,286046996.7,Y
1538576915.5,286046999.4,P
1538576935.3,286047000.9,N
1538576955.1,286046998.6,N
1538576975.9,286046998.6,N
1538576995.7,286046998.1,N
1538577015.5,286047001.1,N
1538577035.4,286046998.9,N
1538577055.2,286046999.0,N
1538577075.0,286046996.5,Y
1538577076.0,286046996.5,P
1538577095.8,286046998.9,N
1538577115.6,286046999.3,N
1538577135.5,286046999.2,N
1538577155.3,286046999.6,N
1538577175.1,286046999.6,N
1538577195.9,286046997.0,Y
1538577215.7,286046998.0,P
1538577235.6,286046998.4,P
1538577255.4,286046999.4,N
1538577275.2,286047000.0,N
1538577295.1,286047002.8,Y
1538577296.0,286047002.8,P
1538577315.8,286047002.5,N
1538577335.6,286047002.4,N
1538577355.5,286047002.0,N
1538577375.3,286047000.3,N
1538577395.2,286047001.0,N
1538577415.9,286047001.0,N
1538577435.7,286047000.5,N
1538577455.6,286047001.6,N
1538577475.4,286047001.6,N
1538577495.2,286047002.6,N
1538577515.1,286047002.3,N
1538577516.0,286047002.3,N
1538577535.8,286047002.6,N
1538577555.7,286047002.4,N
1538577575.5,286047002.5,N
1538577595.3,286047002.5,N
1538577615.2,286047000.3,N
1538577635.0,286047000.5,N
1538577635.9,286047000.5,N
1538577655.8,286047000.8,N
1538577675.6,286047000.6,N
1538577695.4,286047001.2,N
1538577715.3,286046998.4,N
1538577735.1,286046998.5,N
1538577755.8,286046998.5,N
1538577775.7,286046998.6,N
1538577795.5,286046998.2,N
1538577815.4,286046998.5,N
1538577835.2,286047000.8,N
1538577855.0,286046996.7,N
1538577855.9,286046996.7,N
1538577875.8,286046997.0,N
1538577895.6,286046996.6,N
1538577915.5,286046999.1,N
1538577935.3,286046999.1,N
1538577955.1,286046997.0,N
1538577975.9,286046997.4,N
1538577995.7,286046999.6,N
1538578015.5,286046997.0,N
1538578035.4,286046996.8,N
1538578055.2,286046997.0,N
1538578075.1,286046997.4,N
1538578076.0,286046997.4,N
1538578095.8,286046997.6,N
1538578115.6,286046997.3,N
1538578135.5,286046997.1,N
1538578155.3,286046997.6,N
1538578175.2,286046995.1,Y
1538578195.9,286046996.5,P
1538578215.7,286046996.6,P
1538578235.6,286046999.6,N
1538578255.4,286046997.0,N
1538578275.3,286046997.2,N
1538578295.1,286046996.8,N
1538578296.0,286046996.8,Y
1538578315.8,286047000.7,P
1538578335.7,286047000.3,N
1538578355.5,286047001.0,N
1538578375.3,286047001.1,N
1538578395.2,286047001.1,N
1538578415.0,286047000.1,N
1538578415.9,286047000.1,N
1538578435.8,286047001.1,N
1538578455.6,286046998.2,N
1538578475.4,286046998.7,N
1538578495.3,286046999.4,N
1538578515.1,286046997.2,N
1538578535.9,286046997.0,N
1538578555.7,286046996.6,N
1538578575.5,286046997.7,N
1538578595.4,286046997.1,N
1538578615.2,286046997.4,N
1538578635.0,286046997.1,N
1538578636.0,286046997.1,N
1538578655.8,286046996.8,N
1538578675.6,286046996.9,N
1538578695.5,286046997.0,N
1538578715.3,286046997.2,N
1538578735.1,286046997.2,N
1538578755.9,286046997.2,N
1538578775.7,286046997.2,N
1538578795.6,286046996.5,N
